This is the latest recevied weather packets stored in our database for station/object KD5FHA. If no packets are shown the sender has not sent any weather packets the latest 10 day(s).
| Time | Temp. | Humidity | Pressure | Rain* | Wind** | Luminosity | Snow |
|---|---|---|---|---|---|---|---|
| 1777333708 | 31.11° C | 66% | 1008.6 hPa | 0 mm | - | 126 W/m² | - |
| 1777333405 | 31.11° C | 67% | 1008.5 hPa | 0 mm | - | 157 W/m² | - |
| 1777333103 | 31.11° C | 67% | 1008.5 hPa | 0 mm | - | 88 W/m² | - |
| 1777332801 | 31.11° C | 66% | 1008.5 hPa | 0 mm | - | 125 W/m² | - |
| 1777332497 | 31.11° C | 66% | 1008.4 hPa | 0 mm | - | 220 W/m² | - |
| 1777332194 | 31.11° C | 66% | 1008.5 hPa | 0 mm | - | 181 W/m² | - |
| 1777331891 | 31.11° C | 66% | 1008.4 hPa | 0 mm | - | 141 W/m² | - |
| 1777331589 | 31.67° C | 65% | 1008.5 hPa | 0 mm | - | 128 W/m² | - |
| 1777331286 | 31.67° C | 66% | 1008.4 hPa | 0 mm | - | 141 W/m² | - |
| 1777330983 | 31.67° C | 65% | 1008.3 hPa | 0 mm | - | 132 W/m² | - |
| 1777330680 | 31.67° C | 64% | 1008.5 hPa | 0 mm | - | 298 W/m² | - |
| 1777330377 | 31.67° C | 64% | 1008.4 hPa | 0 mm | - | 159 W/m² | - |
| 1777330074 | 32.22° C | 62% | 1008.5 hPa | 0 mm | - | 169 W/m² | - |
| 1777329774 | 32.78° C | 57% | 1008.2 hPa | 0 mm | - | 222 W/m² | - |
| 1777329472 | 32.22° C | 58% | 1008.2 hPa | 0 mm | - | 226 W/m² | - |
| 1777329169 | 32.22° C | 57% | 1008.1 hPa | 0 mm | - | 174 W/m² | - |
| 1777328866 | 32.78° C | 58% | 1008.2 hPa | 0 mm | - | 207 W/m² | - |
| 1777328564 | 32.78° C | 57% | 1008.3 hPa | 0 mm | - | 333 W/m² | - |
| 1777328262 | 32.78° C | 58% | 1008.3 hPa | 0 mm | - | 173 W/m² | - |
| 1777327960 | 32.22° C | 60% | 1008.2 hPa | 0 mm | - | 147 W/m² | - |
| 1777327658 | 32.78° C | 58% | 1008.2 hPa | 0 mm | - | 152 W/m² | - |
| 1777327355 | 33.33° C | 56% | 1008.2 hPa | 0 mm | - | 253 W/m² | - |
| 1777327052 | 32.78° C | 57% | 1008.3 hPa | 0 mm | - | 533 W/m² | - |
| 1777326749 | 32.78° C | 59% | 1008.2 hPa | 0 mm | - | 317 W/m² | - |
| 1777326446 | 32.78° C | 58% | 1008.6 hPa | 0 mm | - | 470 W/m² | - |
* Rain latest hour (hover to see other rain measurements)
** Current wind speed in m/s (hover to see current wind gust speed)